Temperature
25 22 22 23 23 23 23 22 21 21 21 20 18 17 17 18 18 18 18 17 17 16 16 16 16 15 15 14 14 14 14 13 13 13 13 14 14 14 14 14 15 15 15 15
22 22 24 24 24 23 22 21 20 21 22 20 18 17 17 18 18 18 18 17 17 16 16 16 15 15 15 14 14 14 13 13 13 13 13 13 13 13 14 14 14 14 15 15
22 23 25 25 23 23 22 21 21 21 21 20 18 17 17 17 18 18 17 17 17 16 16 15 15 15 14 14 14 13 13 13 13 13 13 13 13 13 14 14 14 14 14 15
23 24 25 24 23 22 22 23 22 21 19 17 18 16 16 16 17 17 17 17 16 16 16 15 15 15 14 14 14 13 13 13 13 13 12 12 12 13 13 13 13 14 14 14
23 23 23 23 23 23 22 23 22 21 19 18 17 16 15 16 16 16 16 16 16 16 16 15 15 15 14 14 14 13 13 13 13 12 12 12 12 12 12 13 13 13 14 14
23 23 23 23 23 23 22 20 19 17 16 17 18 16 15 14 16 16 16 16 16 16 16 15 15 15 14 14 14 13 13 13 13 12 12 12 12 12 12 13 13 13 13 14
22 22 23 23 22 21 20 17 17 17 16 16 17 16 15 16 16 17 16 17 16 16 16 15 15 15 14 14 14 13 13 13 13 12 12 12 12 12 12 12 12 13 13 13
20 20 22 22 22 21 20 17 17 18 17 16 17 16 16 17 18 18 17 17 16 16 16 15 15 14 14 14 13 13 13 13 13 12 12 12 12 12 12 12 12 12 13 13
19 20 22 22 22 22 21 18 17 16 17 17 16 16 17 17 16 17 16 16 16 16 16 15 15 14 14 14 13 13 13 13 12 12 12 12 12 12 12 12 12 12 12 13
19 20 21 22 22 22 21 19 16 17 17 17 17 16 14 16 16 16 16 16 16 16 16 15 15 15 14 14 13 13 13 13 12 12 12 12 12 12 12 12 12 12 12 12
20 19 20 21 21 20 21 20 17 15 15 16 16 16 16 15 15 15 16 16 16 16 16 15 15 15 14 14 14 13 13 13 12 12 12 12 12 12 12 12 12 12 12 12
19 16 18 20 20 21 21 20 17 17 17 15 14 15 17 16 16 17 17 17 17 16 16 15 15 15 14 14 14 13 13 12 12 12 12 12 12 12 12 12 12 12 12 12
19 17 17 18 18 20 21 20 18 15 15 15 15 16 16 16 16 17 17 17 17 16 16 16 15 15 14 14 14 13 13 12 12 12 12 12 12 12 11 11 12 12 12 12
19 17 17 19 18 18 20 20 19 16 15 16 16 17 17 15 15 16 17 17 17 16 16 15 15 15 14 14 14 13 13 13 12 12 12 12 11 11 11 11 11 11 12 12
17 18 20 19 20 20 20 20 19 18 16 16 17 17 17 16 16 17 17 17 17 16 16 15 15 15 14 14 14 13 13 13 12 12 12 11 11 11 11 11 11 11 11 12
17 19 20 20 21 21 21 20 19 19 18 17 18 17 17 18 18 17 17 17 17 16 16 16 15 15 14 14 14 13 13 12 12 12 12 11 11 11 11 11 11 11 11 11
17 18 19 18 20 21 19 19 19 19 19 18 17 17 16 16 16 17 17 17 17 17 16 16 15 15 14 14 14 13 13 12 12 12 11 11 11 11 11 11 11 11 11 11
17 17 15 17 19 20 19 20 20 19 20 19 19 18 17 18 19 19 19 18 17 17 16 16 15 15 14 14 14 13 13 12 12 12 12 11 11 11 11 11 11 11 11 11
17 17 16 16 18 18 20 21 21 20 20 19 18 18 19 19 18 18 18 18 18 17 17 16 15 15 15 14 14 13 13 12 12 12 11 11 11 11 11 11 11 11 11 11
16 15 15 16 19 19 20 21 22 21 20 20 20 18 18 18 14 16 19 18 18 17 17 16 15 15 15 14 14 13 13 13 12 12 11 11 11 11 11 11 11 11 11 11
18 16 16 16 17 17 19 21 21 19 19 21 21 21 19 18 18 20 19 18 18 17 17 16 16 15 15 14 14 14 13 13 12 12 12 11 11 11 11 11 11 11 11 11
16 16 15 15 17 18 21 21 19 19 22 22 22 22 21 21 21 20 19 19 18 17 17 16 16 15 15 14 14 14 13 13 12 12 12 12 11 11 11 11 11 11 11 11
16 16 15 16 18 21 23 23 24 24 23 23 23 22 22 21 21 20 19 19 18 18 17 16 16 15 15 15 14 14 14 13 13 12 12 12 11 11 11 11 11 11 11 11
18 18 17 18 18 22 23 24 24 23 23 23 23 22 22 21 21 20 19 19 18 18 17 17 16 16 15 15 14 14 14 13 13 12 12 12 12 11 11 11 11 11 11 11
19 19 18 19 19 22 23 24 24 24 23 23 23 22 22 21 21 20 19 19 18 18 17 17 16 16 16 15 15 14 14 13 13 13 12 12 12 11 11 11 11 11 11 11
16 17 17 18 20 19 23 24 24 23 23 23 22 22 22 21 21 20 20 19 19 18 18 17 16 16 16 15 15 14 14 14 13 13 13 12 12 12 11 11 11 11 11 11
Wind_Speed
2 5 1 4 5 4 3 3 3 3 4 5 6 6 5 3 5 6 5 4 3 2 2 4 5 5 5 6 6 6 7 7 6 5 5 5 6 6 6 5 7 7 7 6
5 1 5 4 2 4 5 6 4 0 2 4 5 3 3 3 4 5 5 3 2 2 3 4 5 5 5 5 6 6 6 7 6 5 4 4 5 5 5 6 6 7 7 6
6 5 2 3 4 5 5 5 5 4 1 4 6 2 1 1 2 3 4 3 2 2 1 3 4 5 5 6 6 6 7 7 7 7 5 6 5 5 4 6 5 6 6 6
3 2 3 5 4 4 1 1 3 5 4 2 5 2 4 3 0 2 2 1 0 1 0 2 4 5 6 6 6 6 7 7 8 7 6 6 5 5 6 6 6 7 6 5
2 1 4 4 1 2 4 1 1 2 3 1 1 4 4 2 2 3 3 3 1 1 1 3 4 5 5 6 6 6 7 7 8 8 7 6 6 6 6 6 7 7 6 5
3 2 3 3 0 1 2 6 7 6 5 2 3 5 5 4 6 4 4 3 2 1 2 4 5 5 6 6 6 7 7 7 8 8 8 7 8 8 8 8 7 6 5 4
4 4 3 2 3 5 7 6 5 5 4 4 1 4 5 5 5 5 6 4 3 2 2 4 5 5 6 7 7 7 7 8 9 9 8 8 8 8 8 7 6 6 5 4
5 2 3 1 3 1 1 7 6 3 4 4 3 2 5 4 4 5 5 4 2 2 3 3 4 4 6 7 7 7 7 7 8 8 8 7 8 6 5 6 5 5 5 5
6 4 2 1 1 3 2 2 7 6 1 1 2 2 3 1 2 3 3 2 2 3 3 2 3 4 5 6 7 6 7 7 8 8 8 7 8 7 7 7 6 5 5 5
8 4 3 2 4 3 3 4 6 3 1 2 3 4 5 7 6 5 5 4 3 2 2 2 3 4 4 5 6 6 6 6 6 8 7 7 8 8 7 7 7 7 7 6
6 6 1 1 1 3 1 2 4 4 4 4 3 6 6 9 8 7 7 6 5 3 2 3 4 4 4 5 5 6 6 6 6 7 7 8 8 8 8 7 7 7 7 7
4 6 2 2 4 2 4 4 5 3 2 3 3 6 4 9 9 8 8 6 5 3 3 3 3 4 4 5 6 5 5 5 6 6 7 7 8 8 8 8 8 7 7 7
5 6 4 4 6 3 1 3 5 6 4 3 3 6 2 5 6 7 7 6 5 3 2 2 2 3 4 5 5 5 5 5 5 6 6 7 8 8 8 8 8 7 7 8
4 4 6 7 7 6 4 5 5 6 3 3 6 6 5 7 8 7 7 7 5 4 3 1 2 3 4 4 4 4 5 4 4 5 6 7 8 8 8 7 7 7 7 7
5 3 3 6 6 6 6 7 8 7 8 7 7 7 9 12 12 10 8 7 6 4 3 2 2 2 2 3 3 3 3 4 4 5 6 7 7 7 7 7 7 7 7 8
4 3 0 2 5 5 5 7 9 8 7 7 6 7 7 7 8 8 9 8 7 6 5 3 2 0 1 2 2 2 2 3 3 4 5 6 7 7 7 7 7 7 8 8
3 4 2 3 3 1 6 9 10 7 7 8 9 9 5 6 10 12 11 9 9 7 6 5 3 1 1 1 1 1 1 2 3 4 5 6 6 7 7 7 8 7 7 7
5 4 3 1 2 5 8 6 7 8 7 8 7 7 11 11 11 10 10 11 9 8 7 6 4 2 1 1 2 2 1 2 3 4 5 5 5 6 6 7 7 7 6 6
4 6 4 3 1 7 8 4 4 4 6 6 8 8 9 6 4 3 8 10 10 9 8 6 5 4 3 3 3 3 2 2 3 3 4 4 4 5 6 6 6 5 5 6
6 6 5 3 1 4 7 4 3 4 5 6 7 9 9 9 5 7 8 9 9 8 7 6 5 4 4 3 4 4 2 1 1 2 3 3 3 4 5 5 5 4 4 5
2 3 4 3 4 7 7 1 4 2 7 5 7 9 12 11 10 7 9 9 9 9 8 7 6 5 5 5 5 4 2 2 3 2 2 3 3 3 4 4 4 5 5 6
8 6 5 5 3 7 5 6 6 10 5 4 6 8 11 10 7 7 10 10 10 9 8 8 6 5 5 6 6 5 4 4 2 1 1 2 3 3 4 5 5 5 6 6
7 9 7 8 8 8 7 10 8 6 6 6 6 7 9 8 8 9 10 11 11 10 9 7 7 6 5 6 7 6 5 4 2 1 0 0 1 2 3 4 4 4 5 5
4 5 4 4 7 7 8 8 6 7 8 7 7 7 10 10 10 10 10 10 10 10 9 8 7 7 7 7 7 7 6 5 3 2 2 2 2 1 2 3 3 3 3 3
4 2 1 4 7 7 6 7 8 6 6 5 5 7 11 11 10 11 11 11 10 10 9 8 8 8 9 8 8 7 7 6 4 3 3 3 3 3 1 1 1 1 1 1
3 0 2 6 7 5 6 6 4 5 6 7 7 6 7 10 12 11 11 11 10 10 9 9 9 9 8 8 8 8 7 7 6 4 4 3 3 3 3 2 0 3 2 2
Wind_Direction
34 76 151 209 187 182 178 144 145 183 169 131 148 161 185 153 116 112 106 93 79 52 356 11 12 9 6 354 347 342 337 332 336 335 331 325 320 312 310 302 298 294 288 274
49 160 224 208 141 91 88 102 109 139 170 129 141 164 194 168 152 148 138 123 89 42 13 3 2 358 349 338 334 334 332 326 328 322 309 290 291 292 291 297 302 299 294 282
167 224 236 108 79 82 79 130 168 190 98 86 111 32 268 242 118 118 126 136 121 98 40 340 340 339 333 330 329 333 321 322 321 320 316 318 313 306 311 313 310 298 296 286
152 265 86 90 80 102 154 184 155 143 123 229 160 204 256 223 175 137 156 152 122 85 293 310 324 327 324 319 321 319 319 322 321 322 325 325 322 311 298 297 295 299 294 288
155 99 83 91 128 134 203 248 51 119 135 346 114 145 269 188 213 229 214 207 215 199 234 298 310 315 316 315 318 318 324 322 320 323 324 322 316 301 299 302 305 309 304 295
95 69 97 141 216 71 82 38 33 49 69 333 243 160 239 222 209 208 210 211 232 251 287 307 317 324 318 318 320 325 330 321 321 326 328 330 323 319 322 323 320 318 313 305
48 13 15 65 33 13 66 69 29 7 10 264 261 131 236 229 197 182 185 202 229 262 285 309 324 324 319 321 324 329 331 325 327 332 334 335 331 327 325 324 324 325 325 319
134 272 295 65 141 182 143 134 146 195 235 281 358 202 250 221 179 162 168 187 219 267 285 303 311 310 312 319 325 328 330 329 332 337 336 335 335 332 329 328 329 328 324 312
151 215 292 34 80 134 93 126 167 143 176 322 293 289 304 228 184 176 177 180 222 268 284 294 307 314 317 322 321 321 326 332 335 337 338 339 342 341 339 338 341 339 332 334
133 156 251 287 21 355 145 141 83 97 127 308 290 239 228 213 213 198 192 203 230 266 283 291 303 311 313 315 322 332 334 334 335 341 344 354 346 344 342 345 350 350 348 350
111 127 165 41 218 227 43 68 97 115 152 161 269 268 222 192 192 190 199 207 216 229 245 264 285 302 313 320 332 339 339 345 346 346 346 354 352 352 354 357 354 351 352 354
106 113 118 282 298 211 158 152 136 141 239 173 195 266 253 180 185 184 192 204 211 219 230 248 279 312 322 324 330 335 340 348 344 348 355 358 353 357 0 358 355 357 358 359
100 106 89 347 333 335 220 177 146 134 122 158 195 266 259 190 191 193 187 197 211 216 220 261 299 313 312 317 326 336 346 349 348 357 3 2 358 358 357 355 357 2 4 3
105 108 158 190 212 198 204 211 169 129 154 228 229 235 213 212 206 207 200 197 200 206 206 228 289 303 308 317 329 344 352 352 0 7 8 3 354 351 352 354 358 1 5 7
99 117 199 220 214 185 197 202 191 183 190 200 231 219 224 210 204 201 197 192 190 193 199 201 236 292 312 333 347 360 360 358 6 13 8 355 348 352 360 2 1 3 9 12
98 130 85 273 241 213 230 222 205 211 209 214 226 247 234 198 180 187 191 187 189 195 193 185 179 256 327 327 353 13 1 349 5 14 1 352 356 1 4 3 5 9 10 10
116 128 103 290 299 28 271 236 206 212 209 191 214 230 188 172 188 194 194 190 190 194 187 179 179 199 224 239 159 127 316 356 22 12 359 357 360 2 359 6 12 10 7 14
131 119 122 119 45 244 252 255 193 204 230 210 208 198 183 193 199 197 188 184 189 187 182 180 182 188 200 182 133 125 73 42 30 13 359 356 3 3 2 10 12 7 7 14
132 130 110 108 242 283 290 262 172 183 264 224 202 199 194 170 133 231 207 184 183 184 181 182 183 173 164 162 145 120 82 37 27 6 350 349 358 6 9 11 7 6 12 17
75 91 108 112 205 257 260 268 142 98 283 259 192 186 174 140 165 237 209 182 177 175 172 173 168 154 155 169 147 126 126 53 351 321 327 343 1 14 13 9 8 9 18 20
80 71 125 166 235 267 257 209 90 126 249 245 188 181 172 182 202 204 173 175 174 172 175 167 161 166 180 174 149 144 176 234 261 286 340 3 8 22 26 21 18 21 28 32
170 163 184 159 202 264 226 151 184 219 235 217 193 187 187 203 199 173 170 174 173 174 174 169 169 185 192 177 160 169 210 236 246 289 10 11 15 29 47 46 32 27 34 40
192 188 184 185 214 242 210 205 219 194 203 214 198 198 182 181 180 178 178 177 180 181 181 177 177 189 203 195 179 186 218 221 194 150 69 21 58 48 50 58 47 34 35 44
268 178 157 230 262 258 243 245 247 212 213 215 200 185 172 178 182 182 182 184 186 187 186 183 179 191 210 211 203 203 207 196 169 169 202 184 147 101 52 54 55 54 41 43
272 158 173 274 287 306 289 254 244 235 222 207 195 184 182 179 184 185 188 192 192 192 192 186 189 198 210 209 209 211 200 179 173 184 193 180 175 168 139 82 48 46 333 280
339 297 216 249 262 235 263 276 239 218 221 209 194 192 191 186 190 190 195 197 194 194 192 193 198 203 209 204 209 211 199 180 173 183 195 196 193 190 181 169 355 346 327 341
Height
1539 1545 1551 1548 1546 1547 1549 1555 1560 1559 1555 1559 1565 1567 1566 1566 1566 1566 1566 1565 1564 1563 1562 1559 1556 1553 1550 1547 1543 1539 1535 1531 1527 1523 1519 1516 1513 1511 1508 1506 1505 1504 1503 1503
1546 1549 1543 1541 1542 1545 1549 1557 1560 1558 1554 1560 1567 1569 1567 1566 1565 1565 1565 1565 1564 1563 1561 1558 1555 1552 1549 1545 1541 1538 1534 1530 1526 1522 1518 1514 1511 1507 1505 1502 1500 1499 1498 1498
1548 1545 1539 1541 1545 1549 1553 1557 1559 1560 1557 1560 1567 1574 1570 1567 1566 1566 1565 1565 1563 1562 1560 1557 1554 1551 1548 1544 1540 1536 1532 1528 1524 1520 1516 1512 1508 1504 1501 1498 1496 1495 1494 1493
1544 1540 1540 1544 1547 1548 1556 1550 1551 1555 1565 1573 1569 1585 1575 1569 1568 1566 1566 1564 1563 1561 1559 1556 1553 1550 1547 1543 1539 1535 1531 1527 1523 1518 1514 1509 1505 1501 1498 1495 1492 1491 1489 1489
1545 1542 1543 1547 1547 1546 1550 1546 1550 1554 1562 1570 1571 1581 1579 1570 1570 1567 1565 1564 1562 1560 1558 1556 1553 1550 1546 1542 1538 1534 1530 1526 1521 1517 1512 1507 1503 1499 1495 1492 1489 1487 1486 1485
1543 1542 1543 1545 1545 1545 1546 1551 1556 1563 1571 1581 1571 1579 1580 1573 1567 1565 1564 1563 1561 1560 1557 1555 1552 1549 1546 1542 1538 1533 1529 1525 1520 1516 1511 1506 1501 1497 1493 1489 1486 1484 1483 1481
1550 1547 1544 1544 1548 1548 1551 1567 1582 1582 1590 1585 1569 1574 1576 1564 1562 1562 1562 1562 1560 1559 1557 1554 1551 1548 1545 1541 1537 1533 1528 1524 1520 1515 1510 1505 1501 1496 1492 1488 1485 1482 1480 1479
1560 1563 1549 1546 1549 1553 1554 1565 1583 1590 1592 1584 1572 1576 1571 1561 1560 1560 1561 1561 1559 1558 1556 1553 1551 1547 1544 1540 1536 1532 1528 1524 1519 1514 1509 1505 1500 1496 1491 1488 1484 1482 1479 1478
1560 1561 1548 1546 1546 1549 1554 1561 1563 1577 1578 1584 1580 1573 1566 1562 1561 1561 1560 1560 1559 1557 1555 1553 1550 1547 1543 1540 1536 1532 1528 1523 1519 1514 1509 1505 1500 1496 1492 1488 1484 1482 1479 1477
1547 1559 1551 1548 1548 1548 1550 1555 1568 1575 1584 1590 1580 1576 1576 1564 1562 1560 1559 1558 1557 1556 1554 1552 1549 1546 1543 1540 1536 1532 1528 1524 1519 1514 1510 1505 1501 1496 1492 1489 1485 1482 1479 1477
1542 1556 1556 1553 1554 1555 1553 1556 1565 1576 1580 1589 1590 1580 1558 1557 1557 1557 1557 1556 1556 1555 1553 1551 1549 1546 1543 1540 1536 1532 1528 1524 1519 1515 1510 1506 1501 1497 1493 1489 1486 1483 1480 1477
1541 1556 1564 1557 1551 1548 1550 1554 1563 1575 1576 1580 1587 1578 1551 1552 1553 1554 1555 1555 1554 1553 1552 1550 1548 1546 1543 1539 1536 1532 1528 1524 1520 1516 1511 1507 1503 1498 1494 1491 1487 1484 1481 1478
1541 1556 1571 1568 1564 1554 1551 1550 1556 1566 1574 1579 1583 1573 1552 1552 1552 1552 1552 1553 1552 1552 1551 1549 1547 1545 1542 1539 1536 1532 1529 1525 1521 1516 1512 1508 1504 1500 1496 1492 1489 1486 1483 1480
1540 1552 1562 1566 1562 1554 1553 1551 1551 1561 1573 1573 1568 1561 1553 1551 1551 1550 1550 1551 1551 1550 1549 1548 1546 1544 1542 1539 1536 1532 1529 1525 1521 1517 1513 1509 1505 1502 1498 1494 1491 1488 1485 1482
1540 1550 1549 1549 1545 1545 1547 1548 1549 1554 1559 1564 1557 1553 1548 1546 1546 1546 1548 1548 1549 1548 1548 1547 1545 1544 1541 1539 1536 1533 1529 1526 1522 1518 1514 1511 1507 1504 1500 1497 1493 1490 1487 1484
1541 1547 1547 1548 1543 1543 1545 1544 1546 1547 1547 1549 1549 1547 1538 1539 1542 1544 1545 1546 1546 1546 1546 1545 1544 1543 1541 1538 1536 1533 1530 1526 1523 1519 1516 1512 1509 1506 1502 1499 1496 1492 1489 1487
1544 1548 1554 1558 1547 1546 1552 1541 1541 1541 1538 1541 1546 1541 1536 1539 1539 1540 1541 1542 1543 1543 1544 1543 1543 1542 1540 1538 1536 1533 1530 1527 1524 1520 1517 1514 1511 1508 1504 1501 1498 1495 1492 1489
1543 1550 1558 1559 1555 1561 1546 1529 1529 1533 1531 1531 1531 1531 1532 1532 1534 1536 1538 1539 1540 1541 1541 1541 1541 1540 1539 1537 1535 1533 1530 1528 1525 1521 1518 1516 1513 1510 1507 1504 1501 1498 1495 1492
1538 1546 1557 1564 1563 1556 1538 1527 1527 1531 1531 1526 1527 1527 1529 1531 1534 1535 1535 1536 1537 1538 1539 1540 1540 1539 1538 1537 1535 1533 1531 1528 1525 1523 1520 1517 1515 1512 1509 1506 1503 1501 1498 1496
1540 1544 1556 1562 1559 1558 1539 1525 1524 1529 1533 1523 1522 1524 1527 1530 1537 1533 1532 1534 1535 1536 1537 1538 1538 1538 1537 1536 1534 1533 1531 1528 1526 1523 1521 1519 1516 1514 1511 1508 1506 1503 1501 1499
1546 1550 1556 1560 1560 1550 1529 1524 1526 1541 1535 1520 1520 1520 1523 1525 1526 1526 1528 1531 1533 1534 1535 1536 1536 1536 1536 1535 1534 1532 1530 1528 1527 1524 1522 1520 1518 1515 1513 1510 1508 1506 1504 1501
1546 1552 1555 1560 1559 1549 1523 1524 1528 1526 1518 1518 1518 1518 1520 1520 1522 1524 1526 1528 1530 1532 1533 1534 1535 1535 1534 1534 1533 1532 1530 1528 1527 1525 1523 1521 1519 1517 1515 1512 1510 1508 1506 1504
1537 1536 1538 1541 1537 1522 1518 1517 1517 1517 1516 1516 1516 1517 1518 1519 1520 1521 1523 1525 1527 1529 1530 1532 1532 1533 1533 1532 1532 1531 1530 1528 1527 1526 1524 1522 1521 1519 1517 1514 1512 1510 1508 1506
1527 1525 1528 1528 1522 1517 1515 1515 1515 1515 1514 1514 1515 1515 1516 1516 1517 1519 1521 1523 1525 1526 1528 1529 1530 1530 1530 1530 1530 1529 1529 1528 1527 1525 1524 1523 1521 1520 1518 1516 1515 1513 1511 1509
1524 1523 1524 1524 1518 1515 1513 1512 1512 1512 1513 1513 1513 1513 1514 1514 1515 1517 1518 1520 1522 1523 1525 1526 1527 1527 1528 1528 1528 1528 1527 1527 1526 1525 1524 1523 1522 1520 1519 1518 1516 1514 1513 1511
1527 1527 1527 1525 1517 1516 1513 1511 1511 1510 1510 1510 1511 1511 1512 1512 1513 1514 1515 1517 1519 1520 1521 1523 1523 1524 1525 1525 1525 1525 1525 1525 1524 1524 1523 1522 1521 1521 1520 1518 1517 1516 1514 1513